Flag for USA

Past Weather in Washington County State Conservation Area, Illinois, USA — Yesterday and Last 2 Weeks

Now
42 °F

Clear.


Feels Like: 39 °F
Forecast: 51 / 40 °F
Wind: 5 mph from Southeast

Location: Southern Illinois Airport

Current Time: Mar 20, 2019 at 2:26:03 am

Latest Report: Mar 20, 2019 at 1:52 am


Visibility: 10 mi

Pressure: 30.25 "Hg

Humidity: 68%

Dew Point: 32 °F

Location of Washington County State Conservation AreaLocation

Past Weather in Washington County State Conservation Area — Graph

°F

Washington County State Conservation Area Temperature Yesterday

Maximum temperature yesterday: 56 °F (at 3:52 pm)
Minimum temperature yesterday: 29 °F (at 3:52 am)
Average temperature yesterday: 43 °F

High & Low Weather Summary for the Past Weeks

 TemperatureHumidityPressure
High69 °F (Mar 13, 5:52 pm)100% (Mar 9, 9:44 am)30.53 "Hg (Mar 9, 9:44 am)
Low13 °F (Mar 5, 5:52 am)32% (Mar 14, 3:52 pm)29.51 "Hg (Mar 14, 12:52 pm)
Average42 °F67%30.18 "Hg
* Reported Mar 4 11:52 pm — Mar 20 12:52 am, Washington County State Conservation Area. Weather by CustomWeather, © 2019

Note: Actual official high and low records may vary slightly from our data, if they occured in-between our weather recording intervals... More about our weather records

Advertising

Washington County State Conservation Area Weather History for the Previous 24 Hours

Scroll right to see more
 ConditionsComfort  
Time TempWeatherWind HumidityBarometerVisibility
12:52 am
Wed, Mar 20
44 °FClear.5 mph58%30.26 "Hg10 mi
11:52 pm
Tue, Mar 19
44 °FClear.6 mph58%30.27 "Hg10 mi
10:52 pm44 °FClear.5 mph55%30.28 "Hg10 mi
9:52 pm45 °FClear.6 mph53%30.29 "Hg10 mi
8:52 pm48 °FClear.6 mph50%30.30 "Hg10 mi
7:52 pm49 °FPassing clouds.7 mph50%30.30 "Hg10 mi
6:52 pm51 °FScattered clouds.6 mph46%30.30 "Hg10 mi
5:52 pm55 °FSunny.6 mph35%30.30 "Hg10 mi
4:52 pm56 °FSunny.7 mph34%30.31 "Hg10 mi
3:52 pm56 °FScattered clouds.7 mph34%30.34 "Hg10 mi
2:52 pm55 °FSunny.No wind35%30.36 "Hg10 mi
1:52 pm54 °FPassing clouds.9 mph37%30.39 "Hg10 mi
12:52 pm53 °FPartly sunny.5 mph35%30.42 "Hg10 mi
11:52 am51 °FPartly sunny.10 mph39%30.44 "Hg10 mi
10:52 am49 °FSunny.8 mph44%30.45 "Hg10 mi
9:52 am44 °FSunny.6 mph58%30.46 "Hg10 mi
8:52 am36 °FSunny.No wind85%30.45 "Hg10 mi
7:52 am31 °FSunny.No wind92%30.44 "Hg10 mi
6:52 am30 °FClear.No wind92%30.42 "Hg10 mi
5:52 am30 °FClear.No wind92%30.41 "Hg10 mi
4:52 am30 °FClear.No wind89%30.40 "Hg10 mi
3:52 am29 °FClear.No wind89%30.39 "Hg10 mi
2:52 am30 °FClear.No wind92%30.39 "Hg10 mi
Weather by CustomWeather, © 2019

See weather overview